TimeCDT,TemperatureF,Dew PointF,Humidity,Sea Level PressureIn,VisibilityMPH,Wind Direction,Wind SpeedMPH,Gust SpeedMPH,PrecipitationIn,Events,Conditions,WindDirDegrees,DateUTC
12:53 AM,53.1,46.9,80,30.07,10.0,South,4.6,-,N/A,,Clear,180,2013-10-24 05:53:00
1:53 AM,50.0,46.0,86,30.07,10.0,Calm,Calm,-,N/A,,Clear,0,2013-10-24 06:53:00
2:53 AM,48.0,46.9,96,30.08,10.0,Calm,Calm,-,N/A,,Clear,0,2013-10-24 07:53:00
3:53 AM,46.9,46.0,97,30.09,10.0,Calm,Calm,-,N/A,,Clear,0,2013-10-24 08:53:00
4:53 AM,46.9,46.0,97,30.10,10.0,Calm,Calm,-,N/A,,Clear,0,2013-10-24 09:53:00
5:53 AM,46.0,45.0,96,30.12,10.0,Calm,Calm,-,N/A,,Clear,0,2013-10-24 10:53:00
6:53 AM,45.0,44.1,97,30.13,10.0,Calm,Calm,-,N/A,,Clear,0,2013-10-24 11:53:00
7:53 AM,45.0,44.1,97,30.14,10.0,Calm,Calm,-,N/A,,Clear,0,2013-10-24 12:53:00
8:53 AM,53.1,48.9,86,30.17,10.0,Calm,Calm,-,N/A,,Clear,0,2013-10-24 13:53:00
9:53 AM,60.1,52.0,75,30.19,10.0,WNW,4.6,-,N/A,,Clear,300,2013-10-24 14:53:00
10:53 AM,64.9,53.1,65,30.20,10.0,Variable,3.5,-,N/A,,Clear,0,2013-10-24 15:53:00
11:53 AM,69.1,52.0,54,30.21,10.0,North,9.2,-,N/A,,Clear,10,2013-10-24 16:53:00
12:53 PM,73.0,51.1,46,30.19,10.0,NNE,9.2,16.1,N/A,,Clear,30,2013-10-24 17:53:00
1:53 PM,73.0,52.0,48,30.19,10.0,Variable,3.5,-,N/A,,Clear,0,2013-10-24 18:53:00
2:53 PM,73.9,52.0,46,30.19,10.0,North,9.2,-,N/A,,Clear,350,2013-10-24 19:53:00
3:53 PM,73.9,50.0,43,30.19,10.0,NNW,9.2,-,N/A,,Clear,340,2013-10-24 20:53:00
4:53 PM,72.0,51.1,48,30.20,7.0,Variable,6.9,-,N/A,,Clear,0,2013-10-24 21:53:00
5:53 PM,66.9,52.0,59,30.21,7.0,NNE,4.6,-,N/A,,Clear,20,2013-10-24 22:53:00
6:53 PM,62.1,52.0,70,30.24,10.0,North,5.8,-,N/A,,Clear,10,2013-10-24 23:53:00
7:53 PM,60.1,51.1,72,30.26,10.0,NNE,5.8,-,N/A,,Clear,20,2013-10-25 00:53:00
8:53 PM,57.0,48.9,74,30.28,10.0,NE,8.1,-,N/A,,Clear,40,2013-10-25 01:53:00
9:53 PM,55.0,46.0,72,30.31,10.0,NE,11.5,-,N/A,,Clear,40,2013-10-25 02:53:00
10:53 PM,52.0,44.1,74,30.33,10.0,NE,6.9,-,N/A,,Clear,40,2013-10-25 03:53:00
11:53 PM,52.0,43.0,71,30.34,10.0,NNE,9.2,-,N/A,,Clear,30,2013-10-25 04:53:00